FW0984 Weather Reports


Display with metric or nautical units.
time (UTC)temp
F
wind
direction
speed
MPH
gust
MPH
rain 1hr
in
rain 24hr
in
rain mn
in
humidity
%
barometer
mb
20260831103030 69 130 0.0 0.0 0.00 0.00 0.00 94 1018.7
20260831101529 69 130 0.0 0.0 0.00 0.00 0.00 94 1018.6
20260831100027 69 130 0.0 0.0 0.00 0.00 0.00 95 1018.5
20260831094526 69 130 0.0 0.0 0.00 0.00 0.00 95 1018.6
20260831093025 69 130 0.0 0.0 0.00 0.00 0.00 95 1018.5
20260831091537 69 130 0.0 0.0 0.00 0.00 0.00 95 1018.6
20260831090028 69 130 0.0 0.0 0.00 0.00 0.00 95 1018.6
20260831084522 69 130 0.0 0.0 0.00 0.00 0.00 95 1018.4
20260831083021 69 130 0.0 0.0 0.00 0.00 0.00 95 1018.2
20260831081533 69 130 0.0 0.0 0.00 0.00 0.00 95 1018.1
20260831080045 69 130 0.0 0.0 0.00 0.00 0.00 94 1018.1
20260831074516 69 130 0.0 0.0 0.00 0.00 0.00 94 1018.2
20260831073032 69 130 0.0 0.0 0.00 0.00 0.00 94 1018.2
20260831071510 69 130 0.0 0.0 0.00 0.00 0.00 94 1018.3
20260831070010 69 130 0.0 0.0 0.00 0.00 0.00 94 1018.5
20260831064508 69 130 0.0 0.0 0.00 0.00 0.00 94 1018.6
20260831063004 69 130 0.0 0.0 0.00 0.00 0.00 94 1018.9
20260831061503 69 130 0.0 0.0 0.00 0.00 0.00 93 1019.1
20260831060003 69 130 0.0 0.0 0.00 0.00 0.00 93 1019.1
20260831054504 69 130 0.0 0.0 0.00 0.00 0.00 93 1019.1
20260831053001 69 130 0.0 0.0 0.00 0.00 0.00 93 1019.0
20260831051600 69 130 0.0 0.0 0.00 0.00 0.00 93 1019.0
20260831050101 70 130 0.0 0.0 0.00 0.00 0.00 93 1018.9
20260831044603 70 130 0.0 0.0 0.00 0.00 0.00 92 1018.8
20260831043055 70 130 0.0 0.0 0.00 0.00 0.00 92 1018.9
20260831041606 70 130 0.0 0.0 0.00 0.00 0.00 92 1019.0
20260831040050 71 130 0.0 0.0 0.00 0.00 0.00 91 1019.0
20260831034553 71 130 0.0 0.0 0.00 0.00 0.00 91 1019.1
20260831033049 71 130 0.0 0.0 0.00 0.00 0.00 91 1019.1
20260831031549 71 130 0.0 0.0 0.00 0.00 0.00 90 1019.0
20260831030051 72 130 0.0 0.0 0.00 0.00 0.00 90 1019.0
20260831024548 72 130 0.0 0.0 0.00 0.00 0.00 89 1019.1
20260831023047 72 130 0.0 0.0 0.00 0.00 0.00 89 1019.0
20260831021549 73 130 0.0 0.0 0.00 0.00 0.00 88 1019.0
20260831020047 73 130 0.0 0.0 0.00 0.00 0.00 88 1018.9
20260831014546 73 130 0.0 0.0 0.00 0.00 0.00 87 1018.9
20260831013053 74 130 0.0 0.0 0.00 0.00 0.00 86 1018.8
20260831011549 75 130 0.0 0.0 0.00 0.00 0.00 85 1018.7
20260831004547 76 130 0.0 0.0 0.00 0.00 0.00 80 1018.2
20260831003054 77 130 0.0 0.0 0.00 0.00 0.00 79 1018.3
20260831001543 78 111 0.0 0.0 0.00 0.00 0.00 77 1018.2
20260831000043 80 355 0.0 0.0 0.00 0.00 0.00 77 1018.1
20260830234545 81 355 0.0 0.0 0.00 0.00 0.00 75 1018.0
20260830233041 81 355 0.0 0.0 0.00 0.00 0.00 71 1017.9
20260830231543 82 355 0.0 0.0 0.00 0.00 0.00 68 1017.6
20260830230041 83 355 0.0 0.0 0.00 0.00 0.00 67 1017.4
20260830224543 84 355 0.0 0.0 0.00 0.00 0.00 66 1017.6
20260830223040 84 355 0.0 0.0 0.00 0.00 0.00 68 1017.5
20260830221538 85 355 0.0 0.0 0.00 0.00 0.00 65 1017.4
20260830220039 85 355 0.0 0.0 0.00 0.00 0.00 62 1017.6
20260830214538 86 279 0.0 0.0 0.00 0.00 0.00 58 1017.6
20260830213038 87 259 0.0 0.0 0.00 0.00 0.00 58 1017.6
20260830211536 88 202 0.0 0.0 0.00 0.00 0.00 57 1017.6
20260830210035 89 202 0.0 0.0 0.00 0.00 0.00 54 1017.9
20260830204536 89 336 0.0 0.0 0.00 0.00 0.00 50 1018.0
20260830203031 89 336 0.0 2.0 0.00 0.00 0.00 54 1018.3
20260830201530 88 321 0.0 0.0 0.00 0.00 0.00 55 1018.6
20260830200027 89 321 0.0 0.0 0.00 0.00 0.00 58 1018.8
20260830194526 89 55 0.0 2.0 0.00 0.00 0.00 56 1019.0
20260830193023 88 284 0.0 4.0 0.00 0.00 0.00 49 1019.4
20260830191520 88 140 0.0 2.0 0.00 0.00 0.00 55 1019.7
20260830190020 88 271 0.0 2.0 0.00 0.00 0.00 54 1019.9
20260830184520 88 268 0.0 2.0 0.00 0.00 0.00 51 1020.0
20260830183019 88 281 0.0 0.0 0.00 0.00 0.00 52 1020.1
20260830181517 89 321 0.0 3.0 0.00 0.00 0.00 53 1020.3
20260830180016 89 307 1.0 6.0 0.00 0.00 0.00 55 1020.4
20260830174523 88 317 0.0 0.0 0.00 0.00 0.00 53 1020.6
20260830173012 89 303 0.0 0.0 0.00 0.00 0.00 56 1020.8
20260830171511 89 290 0.0 2.0 0.00 0.00 0.00 56 1020.8
20260830170009 89 301 0.0 4.0 0.00 0.00 0.00 60 1020.8
20260830164514 89 280 0.0 0.0 0.00 0.00 0.00 56 1020.8
20260830163004 89 259 0.0 0.0 0.00 0.00 0.00 63 1020.8
20260830161612 88 224 0.0 0.0 0.00 0.00 0.00 62 1020.8
20260830160058 88 281 0.0 0.0 0.00 0.00 0.00 67 1020.8
20260830154555 87 262 0.0 0.0 0.00 0.00 0.00 71 1021.0
20260830153050 85 192 0.0 0.0 0.00 0.00 0.00 74 1020.9
20260830151549 83 221 0.0 0.0 0.00 0.00 0.00 77 1020.8
20260830150042 81 88 0.0 0.0 0.00 0.00 0.00 79 1020.6
20260830144537 79 199 0.0 0.0 0.00 0.00 0.00 84 1020.4
20260830143032 76 199 0.0 0.0 0.00 0.00 0.00 88 1020.4
20260830141528 72 199 0.0 0.0 0.00 0.00 0.00 94 1020.2
20260830140030 71 184 0.0 0.0 0.00 0.00 0.00 95 1020.0
20260830134521 69 210 0.0 0.0 0.00 0.00 0.00 96 1020.0
20260830133022 68 261 0.0 1.0 0.00 0.00 0.00 96 1020.2
20260830131514 67 262 0.0 0.0 0.00 0.00 0.00 96 1020.3
20260830130012 66 262 0.0 0.0 0.00 0.00 0.00 96 1020.4
20260830124514 65 261 0.0 0.0 0.00 0.00 0.00 96 1020.5
20260830123009 65 134 0.0 0.0 0.00 0.00 0.00 96 1020.6
20260830121508 64 134 0.0 0.0 0.00 0.00 0.00 95 1020.7
20260830120007 64 134 0.0 0.0 0.00 0.00 0.00 95 1020.4
20260830114504 64 134 0.0 0.0 0.00 0.00 0.00 95 1020.3
20260830113002 63 134 0.0 0.0 0.00 0.00 0.00 95 1020.1
20260830111600 64 134 0.0 0.0 0.00 0.00 0.00 94 1019.9
20260830110059 64 134 0.0 0.0 0.00 0.00 0.00 94 1020.0
20260830104604 64 134 0.0 0.0 0.00 0.00 0.00 94 1019.9